This demonstration page uses our WeatherBlox Daily Observations layout. Learn more.

Left ArrowRight Arrow

Hourly Observations for September 2, 2021

Temp ( °F °C ) Dew Point ( °F °C ) Humidity (%) Winds ( mph kmh ) Pressure ( in mb ) Visibility ( mi km ) Precip ( " mm )
12:59 am 00:59 Cloudy 70 21.1 65 18.3 84 84 NW 16 26 29.71 1006 10 16 0.00 0.00
1:43 am 01:43 Cloudy 70 21.1 65 18.3 84 84 NW 15 24 29.72 1006 10 16 0.00 0.00
1:57 am 01:57 Cloudy with Light Rain 70 21 64 18 83 83 NW 14 22 29.72 1006 10 16 0.00 0.00
1:59 am 01:59 Cloudy 70 21.1 65 18.3 84 84 NW 15 24 29.72 1006 10 16 0.00 0.00
2:37 am 02:37 Cloudy 70 21.1 65 18.3 84 84 WNW 17 28 29.73 1007 10 16 0.00 0.00
2:59 am 02:59 Cloudy with Light Rain 70 21.1 65 18.3 84 84 NNW 14 22 29.73 1007 10 16 0.00 0.00
3:45 am 03:45 Cloudy 69 20.6 64 17.8 84 84 NNW 17 28 29.74 1007 10 16 0.01 0.25
3:59 am 03:59 Cloudy 70 21.1 64 17.8 82 82 NNW 15 24 29.74 1007 10 16 0.01 0.25
4:51 am 04:51 Cloudy 69 20.6 64 17.8 84 84 NNW 16 26 29.77 1008 10 16 0.00 0.00
4:59 am 04:59 Cloudy 69 20.6 64 17.8 84 84 NNW 15 24 29.77 1008 10 16 0.00 0.00
5:42 am 05:42 Cloudy 69 20.6 63 17.2 81 81 NNW 16 26 29.78 1008 10 16 0.00 0.00
5:59 am 05:59 Cloudy 69 20.6 63 17.2 81 81 NNW 16 26 29.79 1009 10 16 0.00 0.00
6:59 am 06:59 Cloudy 69 20.6 62 16.7 78 78 NNW 17 28 29.82 1010 10 16 0.00 0.00
7:59 am 07:59 Mostly Cloudy 70 21.1 62 16.7 76 76 NNW 16 26 29.84 1010 10 16 0.00 0.00
8:59 am 08:59 Mostly Cloudy 71 21.7 62 16.7 73 73 NNW 15 24 29.86 1011 10 16 0.00 0.00
9:59 am 09:59 Mostly Cloudy 72 22.2 62 16.7 71 71 N 13 20 29.88 1012 10 16 0.00 0.00
10:59 am 10:59 Mostly Cloudy 74 23.3 61 16.1 64 64 NNW 14 22 29.90 1013 10 16 0.00 0.00
11:59 am 11:59 Mostly Cloudy 75 23.9 61 16.1 62 62 N 10 17 29.91 1013 10 16 0.00 0.00
12:59 pm 12:59 Mostly Cloudy 75 23.9 61 16.1 62 62 NNW 14 22 29.92 1013 10 16 0.00 0.00
1:59 pm 13:59 Mostly Cloudy 76 24.4 60 15.6 58 58 N 14 22 29.92 1013 10 16 0.00 0.00
2:59 pm 14:59 Mostly Cloudy 76 24.4 60 15.6 58 58 N 9 15 29.93 1014 10 16 0.00 0.00
3:59 pm 15:59 Mostly Cloudy 78 25.6 58 14.4 50 50 N 13 20 29.93 1013 10 16 0.00 0.00
4:59 pm 16:59 Partly Cloudy 79 26.1 56 13.3 45 45 N 9 15 29.93 1014 10 16 0.00 0.00
5:59 pm 17:59 Sunny 78 25.6 53 11.7 42 42 N 10 17 29.93 1014 10 16 0.00 0.00
6:59 pm 18:59 Sunny 76 24.4 52 11.1 43 43 N 10 17 29.95 1014 10 16 0.00 0.00
7:59 pm 19:59 Clear 75 23.9 52 11.1 45 45 N 9 15 29.96 1015 10 16 0.00 0.00
8:59 pm 20:59 Clear 75 23.9 52 11.1 45 45 N 9 15 30.00 1016 10 16 0.00 0.00
9:59 pm 21:59 Clear 74 23.3 54 12.2 50 50 NNW 12 19 30.01 1016 10 16 0.00 0.00
10:59 pm 22:59 Partly Cloudy 73 22.8 55 12.8 53 53 N 7 11 30.01 1016 10 16 0.00 0.00
11:59 pm 23:59 Partly Cloudy 73 22.8 58 14.4 59 59 NNE 3 6 30.02 1017 10 16 0.00 0.00

Powered by AerisWeather